• In Hungary
  • List of Countries
  • For 7 days
  • Water Temperature
  • Satellite Maps
  • Weather Map
  • News
  • Weather Widgets
  • user-avatar
    Login

    Hourly Weather Dundee

    Today, 22 November, Wednesday

    Time Temperature Precipitation Wind Pressure Humidity
    00:00 +9°C° 0 mm 8 mps 731 mmHg 89%
    01:00 +9°C° 0 mm 7 mps 731 mmHg 89%
    02:00 +8°C° 0 mm 7 mps 731 mmHg 89%
    03:00 +6°C° 0 mm 7 mps 731 mmHg 89%
    04:00 +7°C° 0 mm 6 mps 731 mmHg 90%
    05:00 +6°C° 0 mm 5 mps 731 mmHg 91%
    06:00 +6°C° 0 mm 4 mps 731 mmHg 91%
    07:00 +7°C° 0.3 mm 3 mps 730 mmHg 92%
    08:00 +7°C° 0.3 mm 2 mps 730 mmHg 93%
    09:00 +7°C° 0.3 mm 1 mps 730 mmHg 95%
    10:00 +7°C° 1.1 mm 1 mps 729 mmHg 95%
    11:00 +7°C° 1.1 mm 2 mps 728 mmHg 96%
    12:00 +7°C° 1.1 mm 2 mps 727 mmHg 96%
    13:00 +7°C° 0.8 mm 2 mps 726 mmHg 96%
    14:00 +6°C° 0.8 mm 2 mps 726 mmHg 96%
    15:00 +6°C° 0.8 mm 2 mps 725 mmHg 96%
    16:00 +6°C° 0.4 mm 2 mps 724 mmHg 96%
    17:00 +5°C° 0.4 mm 3 mps 724 mmHg 96%
    18:00 +5°C° 0.4 mm 3 mps 723 mmHg 96%
    19:00 +5°C° 0.7 mm 3 mps 723 mmHg 96%
    20:00 +6°C° 0.7 mm 2 mps 722 mmHg 96%
    21:00 +6°C° 0.7 mm 2 mps 721 mmHg 96%
    22:00 +6°C° 1.2 mm 2 mps 721 mmHg 96%
    23:00 +6°C° 1.2 mm 2 mps 720 mmHg 96%

    Tomorrow, 23 November, Thursday

    Time Temperature Precipitation Wind Pressure Humidity
    00:00 +6°C° 1.2 mm 2 mps 720 mmHg 96%
    01:00 +6°C° 0.6 mm 2 mps 719 mmHg 96%
    02:00 +6°C° 0.6 mm 2 mps 719 mmHg 96%
    03:00 +5°C° 0.6 mm 2 mps 719 mmHg 96%
    04:00 +4°C° 1.4 mm 4 mps 718 mmHg 94%
    05:00 +3°C° 1.4 mm 6 mps 718 mmHg 91%
    06:00 +2°C° 1.4 mm 8 mps 718 mmHg 89%
    07:00 +2°C° 0.2 mm 8 mps 718 mmHg 87%
    08:00 +1°C° 0.2 mm 8 mps 718 mmHg 86%
    09:00 +1°C° 0.2 mm 8 mps 719 mmHg 84%
    10:00 +1°C° 0 mm 9 mps 719 mmHg 82%
    11:00 +2°C° 0 mm 9 mps 720 mmHg 79%
    12:00 +2°C° 0 mm 9 mps 721 mmHg 77%
    13:00 +2°C° 0.2 mm 9 mps 723 mmHg 77%
    14:00 +2°C° 0.2 mm 9 mps 725 mmHg 77%
    15:00 +1°C° 0.2 mm 9 mps 727 mmHg 78%
    16:00 +1°C° 0.1 mm 9 mps 729 mmHg 77%
    17:00 +1°C° 0.1 mm 9 mps 730 mmHg 77%
    18:00 0°C° 0.1 mm 8 mps 732 mmHg 76%
    19:00 0°C° 0 mm 8 mps 733 mmHg 78%
    20:00 0°C° 0 mm 8 mps 734 mmHg 80%
    21:00 -1°C° 0 mm 7 mps 735 mmHg 82%
    22:00 -1°C° 0 mm 7 mps 736 mmHg 82%
    23:00 -1°C° 0 mm 6 mps 736 mmHg 82%

    Day after tomorrow, 24 November, Friday

    Time Temperature Precipitation Wind Pressure Humidity
    00:00 -1°C° 0 mm 6 mps 737 mmHg 82%
    01:00 -1°C° 0 mm 6 mps 738 mmHg 82%
    02:00 -1°C° 0 mm 6 mps 738 mmHg 81%
    03:00 -2°C° 0 mm 6 mps 738 mmHg 80%
    04:00 -2°C° 0 mm 6 mps 739 mmHg 81%
    05:00 -2°C° 0 mm 6 mps 739 mmHg 81%
    06:00 -2°C° 0 mm 6 mps 740 mmHg 81%
    07:00 -2°C° 0 mm 6 mps 740 mmHg 81%
    08:00 -2°C° 0 mm 6 mps 741 mmHg 80%
    09:00 -2°C° 0 mm 6 mps 741 mmHg 80%
    10:00 -1°C° 0 mm 6 mps 741 mmHg 76%
    11:00 +1°C° 0 mm 6 mps 742 mmHg 72%
    12:00 +2°C° 0 mm 7 mps 742 mmHg 68%
    13:00 +1°C° 0 mm 6 mps 742 mmHg 70%
    14:00 +1°C° 0 mm 5 mps 742 mmHg 72%
    15:00 0°C° 0 mm 5 mps 742 mmHg 75%
    16:00 0°C° 0 mm 5 mps 741 mmHg 77%
    17:00 -1°C° 0 mm 5 mps 741 mmHg 80%
    18:00 -1°C° 0 mm 4 mps 741 mmHg 83%
    19:00 -2°C° 0 mm 4 mps 741 mmHg 84%
    20:00 -2°C° 0 mm 4 mps 741 mmHg 85%
    21:00 -2°C° 0 mm 4 mps 741 mmHg 85%
    22:00 -2°C° 0 mm 4 mps 741 mmHg 84%
    23:00 -2°C° 0 mm 4 mps 741 mmHg 83%

    25 November, Saturday

    Time Temperature Precipitation Wind Pressure Humidity
    00:00 -2°C° 0 mm 4 mps 740 mmHg 82%
    01:00 -2°C° 0 mm 4 mps 740 mmHg 81%
    02:00 -2°C° 0 mm 4 mps 740 mmHg 81%
    03:00 -2°C° 0 mm 4 mps 740 mmHg 81%
    04:00 -2°C° 0 mm 4 mps 740 mmHg 81%
    05:00 -2°C° 0 mm 4 mps 740 mmHg 81%
    06:00 -2°C° 0 mm 4 mps 740 mmHg 81%
    07:00 -2°C° 0 mm 5 mps 740 mmHg 79%
    08:00 -3°C° 0 mm 6 mps 740 mmHg 77%
    09:00 -2°C° 0 mm 6 mps 740 mmHg 75%
    10:00 -1°C° 0 mm 7 mps 740 mmHg 73%
    11:00 0°C° 0 mm 8 mps 740 mmHg 70%
    12:00 +1°C° 0 mm 8 mps 739 mmHg 68%
    13:00 +1°C° 0.1 mm 8 mps 739 mmHg 70%
    14:00 +1°C° 0.1 mm 9 mps 739 mmHg 73%
    15:00 +1°C° 0.1 mm 9 mps 738 mmHg 75%
    16:00 +1°C° 0.1 mm 8 mps 739 mmHg 76%
    17:00 +1°C° 0.1 mm 8 mps 739 mmHg 77%
    18:00 +1°C° 0.1 mm 8 mps 739 mmHg 79%
    19:00 +1°C° 0 mm 8 mps 740 mmHg 80%
    20:00 +2°C° 0 mm 7 mps 741 mmHg 81%
    21:00 +2°C° 0 mm 7 mps 741 mmHg 83%
    22:00 +1°C° 0 mm 8 mps 742 mmHg 80%
    23:00 0°C° 0 mm 8 mps 743 mmHg 78%

    26 November, Sunday

    Time Temperature Precipitation Wind Pressure Humidity
    00:00 0°C° 0 mm 8 mps 743 mmHg 76%
    01:00 0°C° 0 mm 8 mps 744 mmHg 77%
    02:00 -1°C° 0 mm 8 mps 744 mmHg 78%
    03:00 -1°C° 0 mm 8 mps 744 mmHg 79%
    04:00 -1°C° 0 mm 8 mps 745 mmHg 78%
    05:00 -2°C° 0 mm 8 mps 745 mmHg 78%
    06:00 -2°C° 0 mm 8 mps 745 mmHg 78%
    07:00 -2°C° 0 mm 8 mps 746 mmHg 77%
    08:00 -2°C° 0 mm 8 mps 746 mmHg 76%
    09:00 -2°C° 0 mm 8 mps 746 mmHg 75%
    10:00 -1°C° 0 mm 8 mps 746 mmHg 72%
    11:00 -1°C° 0 mm 9 mps 747 mmHg 69%
    12:00 0°C° 0 mm 9 mps 747 mmHg 65%
    13:00 0°C° 0 mm 9 mps 747 mmHg 67%
    14:00 -1°C° 0 mm 8 mps 747 mmHg 68%
    15:00 -1°C° 0 mm 8 mps 748 mmHg 70%
    16:00 -1°C° 0 mm 8 mps 748 mmHg 72%
    17:00 -2°C° 0 mm 7 mps 748 mmHg 74%
    18:00 -3°C° 0 mm 7 mps 749 mmHg 76%
    19:00 -3°C° 0 mm 7 mps 749 mmHg 77%
    20:00 -3°C° 0 mm 6 mps 749 mmHg 78%
    21:00 -3°C° 0 mm 6 mps 749 mmHg 79%
    22:00 -2°C° 0 mm 5 mps 749 mmHg 80%
    23:00 -4°C° 0 mm 5 mps 749 mmHg 81%

    27 November, Monday

    Time Temperature Precipitation Wind Pressure Humidity
    00:00 -3°C° 0 mm 4 mps 749 mmHg 82%
    01:00 -2°C° 0 mm 4 mps 748 mmHg 83%
    02:00 -1°C° 0 mm 3 mps 748 mmHg 83%
    03:00 0°C° 0 mm 3 mps 747 mmHg 83%
    04:00 0°C° 0.3 mm 3 mps 746 mmHg 86%
    05:00 0°C° 0.3 mm 3 mps 745 mmHg 88%
    06:00 0°C° 0.3 mm 3 mps 744 mmHg 91%
    07:00 0°C° 1.4 mm 4 mps 743 mmHg 92%
    08:00 0°C° 1.4 mm 5 mps 742 mmHg 94%
    09:00 +1°C° 1.4 mm 5 mps 741 mmHg 95%
    10:00 +1°C° 0.5 mm 5 mps 740 mmHg 94%
    11:00 +1°C° 0.5 mm 5 mps 740 mmHg 93%
    12:00 +1°C° 0.5 mm 5 mps 739 mmHg 93%
    13:00 +1°C° 0 mm 5 mps 739 mmHg 91%
    14:00 +1°C° 0 mm 5 mps 738 mmHg 90%
    15:00 +1°C° 0 mm 6 mps 738 mmHg 88%
    16:00 0°C° 0.1 mm 5 mps 738 mmHg 89%
    17:00 0°C° 0.1 mm 5 mps 738 mmHg 89%
    18:00 -1°C° 0.1 mm 5 mps 738 mmHg 89%
    19:00 -1°C° 0.2 mm 5 mps 738 mmHg 89%
    20:00 -1°C° 0.2 mm 4 mps 738 mmHg 90%
    21:00 -1°C° 0.2 mm 4 mps 739 mmHg 90%
    22:00 -1°C° 0.1 mm 4 mps 739 mmHg 89%
    23:00 -1°C° 0.1 mm 5 mps 739 mmHg 89%
    Show more